Starlink 32916

operational
NORAD ID: 62922 Int'l Des: 2025-027 Owner: SPXS Country: US Constellation: starlink
LEOCIRCULAR

About Starlink 32916

Description loading...

Live Position

Loading 3D Globe...

Upcoming Passes

Altitude History

Altitude vs Time

uPlot chart will show altitude changes over time

Two-Line Element Set

1 62922U 25027R 26034.16818478 .00047257 00000-0 17136-2 0 9990
2 62922 43.0023 323.7452 0000679 134.5000 225.5907 15.27622893 56260
Epoch: Feb 3, 2026 • Age: 22 hours

Current Status

Altitude 485.4 km
Velocity 7.63 km/s
Sub-Earth Point 42.84°N, 113.65°W
Launch Date Feb 8, 2025
Age 0.9 years
Type internet

Technical Details

Classification Payload
Mass 730.00 kg
Dry Mass 700.00 kg
Total Mass 730.00 kg
Length 0.30 m
Diameter 4.10 m
Span 29.00 m
Shape Box + pan
Manufacturer SPXS
Bus Type Starlink V2M
Phase Status In Orbit
Owner/State SPXS/US

Large Constellations

Loading constellations...